Terminal Aerodrome Forecast
Issued by NWS

Home | Current Version | Previous Version | Text Only | Print | Product List | Glossary On
Versions: 1 2 3 4 5 6 7 8 9 10 11 12 13 14 15 16 17
000
FTUS43 KGRB 061400 AAA
TAFAUW
TAF AMD
KAUW 061407Z 0614/0712 11007KT P6SM VCSH BKN015 OVC025
      TEMPO 0614/0616 4SM -SHRA
     FM061800 14010KT P6SM SCT020 BKN035
      TEMPO 0622/0701 -SHRA
     FM070300 14008KT 5SM BR BKN015 OVC040
     FM070900 14008KT 3SM BR VCSH BKN009 OVC035 WS015/20035KT=

USA.gov is the U.S. government's official web portal to all federal, state and local government web resources and services.